�������C�����ː����j�^�v���󋵏��
Date,Time,Cs137(Bq/L),Cs134(Bq/L),�S��(Bq/L)
2022/12/15,00:00,ND,ND,37
2022/12/15,00:10,ND,ND,37
2022/12/15,00:20,ND,ND,36
2022/12/15,00:30,ND,ND,38
2022/12/15,00:40,ND,ND,40
2022/12/15,00:50,ND,ND,41
2022/12/15,01:00,ND,ND,44
2022/12/15,01:10,ND,ND,43
2022/12/15,01:20,ND,ND,43
2022/12/15,01:30,ND,ND,43
2022/12/15,01:40,ND,ND,45
2022/12/15,01:50,ND,ND,47
2022/12/15,02:00,ND,ND,46
2022/12/15,02:10,ND,ND,49
2022/12/15,02:20,ND,ND,47
2022/12/15,02:30,ND,ND,48
2022/12/15,02:40,ND,ND,48
2022/12/15,02:50,ND,ND,48
2022/12/15,03:00,ND,ND,45
2022/12/15,03:10,ND,ND,43
2022/12/15,03:20,ND,ND,46
2022/12/15,03:30,ND,ND,46
2022/12/15,03:40,ND,ND,42
2022/12/15,03:50,ND,ND,38
2022/12/15,04:00,ND,ND,42
2022/12/15,04:10,ND,ND,41
2022/12/15,04:20,ND,ND,39
2022/12/15,04:30,ND,ND,40
2022/12/15,04:40,ND,ND,41
2022/12/15,04:50,ND,ND,42
2022/12/15,05:00,ND,ND,40
2022/12/15,05:10,ND,ND,41
2022/12/15,05:20,ND,ND,43
2022/12/15,05:30,ND,ND,40
2022/12/15,05:40,ND,ND,40
2022/12/15,05:50,ND,ND,40
2022/12/15,06:00,ND,ND,41
2022/12/15,06:10,ND,ND,41
2022/12/15,06:20,ND,ND,38
2022/12/15,06:30,ND,ND,40
2022/12/15,06:40,ND,ND,43
2022/12/15,06:50,ND,ND,40
2022/12/15,07:00,ND,ND,41
2022/12/15,07:10,ND,ND,41
2022/12/15,07:20,ND,ND,42
2022/12/15,07:30,ND,ND,42
2022/12/15,07:40,ND,ND,40
2022/12/15,07:50,ND,ND,41
2022/12/15,08:00,ND,ND,39
2022/12/15,08:10,ND,ND,38
2022/12/15,08:20,ND,ND,39
2022/12/15,08:30,ND,ND,39
2022/12/15,08:40,ND,ND,40
2022/12/15,08:50,ND,ND,42
2022/12/15,09:00,ND,ND,44
2022/12/15,09:10,ND,ND,42
2022/12/15,09:20,ND,ND,39
2022/12/15,09:30,ND,ND,42
2022/12/15,09:40,ND,ND,42
2022/12/15,09:50,ND,ND,40
2022/12/15,10:00,ND,ND,35
2022/12/15,10:10,ND,ND,37
2022/12/15,10:20,ND,ND,41
2022/12/15,10:30,ND,ND,38
2022/12/15,10:40,ND,ND,37
2022/12/15,10:50,ND,ND,37
2022/12/15,11:00,ND,ND,40
2022/12/15,11:10,ND,ND,41
2022/12/15,11:20,ND,ND,40
2022/12/15,11:30,ND,ND,41
2022/12/15,11:40,ND,ND,42
2022/12/15,11:50,ND,ND,45
2022/12/15,12:00,ND,ND,45
2022/12/15,12:10,ND,ND,43
2022/12/15,12:20,ND,ND,43
2022/12/15,12:30,ND,ND,46
2022/12/15,12:40,ND,ND,46
2022/12/15,12:50,ND,ND,43
2022/12/15,13:00,ND,ND,44
2022/12/15,13:10,ND,ND,46
2022/12/15,13:20,ND,ND,44
2022/12/15,13:30,ND,ND,40
2022/12/15,13:40,ND,ND,41
2022/12/15,13:50,ND,ND,42
2022/12/15,14:00,ND,ND,43
2022/12/15,14:10,ND,ND,43
2022/12/15,14:20,ND,ND,42
2022/12/15,14:30,ND,ND,46
2022/12/15,14:40,ND,ND,44
2022/12/15,14:50,ND,ND,44
2022/12/15,15:00,ND,ND,43
2022/12/15,15:10,ND,ND,42
2022/12/15,15:20,ND,ND,44
2022/12/15,15:30,ND,ND,44
2022/12/15,15:40,ND,ND,45
2022/12/15,15:50,ND,ND,44
2022/12/15,16:00,ND,ND,44
2022/12/15,16:10,ND,ND,46
2022/12/15,16:20,ND,ND,47
2022/12/15,16:30,ND,ND,44
2022/12/15,16:40,ND,ND,43
2022/12/15,16:50,ND,ND,44
2022/12/15,17:00,ND,ND,44
2022/12/15,17:10,ND,ND,40
2022/12/15,17:20,ND,ND,40
2022/12/15,17:30,ND,ND,42
2022/12/15,17:40,ND,ND,44
2022/12/15,17:50,ND,ND,45
2022/12/15,18:00,ND,ND,46
2022/12/15,18:10,ND,ND,49
2022/12/15,18:20,ND,ND,48
2022/12/15,18:30,ND,ND,46
2022/12/15,18:40,ND,ND,46
2022/12/15,18:50,ND,ND,46
2022/12/15,19:00,ND,ND,44
2022/12/15,19:10,ND,ND,42
2022/12/15,19:20,ND,ND,41
2022/12/15,19:30,ND,ND,42
2022/12/15,19:40,ND,ND,39
2022/12/15,19:50,ND,ND,37
2022/12/15,20:00,ND,ND,36
2022/12/15,20:10,ND,ND,36
2022/12/15,20:20,ND,ND,36
2022/12/15,20:30,ND,ND,36
2022/12/15,20:40,ND,ND,37
2022/12/15,20:50,ND,ND,38
2022/12/15,21:00,ND,ND,39
2022/12/15,21:10,ND,ND,38
2022/12/15,21:20,ND,ND,37
2022/12/15,21:30,ND,ND,36
2022/12/15,21:40,ND,ND,38
2022/12/15,21:50,ND,ND,38
2022/12/15,22:00,ND,ND,38
2022/12/15,22:10,ND,ND,38
2022/12/15,22:20,ND,ND,41
2022/12/15,22:30,ND,ND,42
2022/12/15,22:40,ND,ND,43
2022/12/15,22:50,ND,ND,44
2022/12/15,23:00,ND,ND,46
2022/12/15,23:10,ND,ND,47
2022/12/15,23:20,ND,ND,45
2022/12/15,23:30,ND,ND,42
2022/12/15,23:40,ND,ND,38
2022/12/15,23:50,ND,ND,38
